Regional Weather Roundup
Issued by NWS

Home | Current Version | Previous Version | Graphics & Text | Print | Product List | Glossary On
Versions: 1 2 3 4 5 6 7 8 9 10 11 12 13 14 15 16 17 18 19 20 21 22 23 24 25 26 27 28 29 30 31 32 33 34 35 36 37 38 39 40 41 42 43 44 45 46 47 48 49 50
000
ASUS45 KCYS 290510
RWRWY

WYOMING REGIONAL WEATHER ROUNDUP
NATIONAL WEATHER SERVICE CHEYENNE WY
1100 PM MDT THU MAY 28 2015

NOTE:  "FAIR" INDICATES FEW OR NO CLOUDS BELOW 12,000 FEET
WITH NO SIGNIFICANT WEATHER AND/OR OBSTRUCTIONS TO VISIBILITY.

WYZ001-290600-
YELLOWSTONE NATIONAL PARK

CITY           SKY/WX    TMP DP  RH WIND       PRES   REMARKS
LK YELLOWSTONE   N/A     40  37  89 CALM      30.32R
W YELLOWSTONE  NOT AVBL

$$
WYZ002>013-054>058-071-098>099-290600-
NORTHERN WYOMING

CITY           SKY/WX    TMP DP  RH WIND       PRES   REMARKS
JACKSON        FAIR      37  37 100 CALM      30.26S
CODY           CLOUDY    48  46  93 NE6       30.23R
GREYBULL       MOCLDY    56  47  71 NW25G31   30.13R
WORLAND        FAIR      54  45  71 N7        30.15R
SHERIDAN       LGT RAIN  52  50  93 NW13      30.19R
BUFFALO        CLOUDY    51  46  83 NW23G37   30.18R
GILLETTE       CLOUDY    54  47  77 NW15      30.12R
HULETT         CLOUDY    55  48  76 N8G17     30.10S
NEWCASTLE      FAIR      50  48  93 NW8       30.09S

$$
WYZ014>020-022>026-101>103-290600-
CENTRAL WYOMING

CITY           SKY/WX    TMP DP  RH WIND       PRES   REMARKS
BIG PINEY      FAIR      41  36  82 NE3       30.24R
PINEDALE       FAIR      39  37  93 W8        30.24S WCI  34
DUBOIS         CLOUDY    43  37  81 W9        30.25R
LANDER         LGT RAIN  48  44  86 W9        30.21R
RIVERTON       MOCLDY    50  42  74 N13       30.21R
CASPER         MOCLDY    47  43  86 CALM      30.17R
DOUGLAS        CLOUDY    53  48  83 W6        30.15R

$$
WYZ021-027>030-104>119-290600-
SOUTHERN WYOMING

CITY           SKY/WX    TMP DP  RH WIND       PRES   REMARKS
EVANSTON       FAIR      48  37  65 NE3       30.27R
KEMMERER       FAIR      41  36  81 NW3       30.27S
FORT BRIDGER   CLEAR     45  39  81 W6        30.29R
ROCK SPRINGS   MOCLDY    45  39  79 W7        30.24R
DIXON          CLOUDY    47  41  77 CALM      30.27R
RAWLINS        MOCLDY    47  39  74 SW13      30.21R
SARATOGA       MOCLDY    43  37  81 CALM      30.25R
LARAMIE        LGT RAIN  48  35  60 N5        30.21S
CHEYENNE       CLOUDY    54  38  54 N9        30.16S
TORRINGTON     CLOUDY    57  49  74 CALM      30.09R
PINE BLUFFS    FAIR      50  46  87 N3        30.13R

$$


USA.gov is the U.S. government's official web portal to all federal, state and local government web resources and services.